Location: Newark
(12.4436°N, 0.6167°W)
Time: 00:19:14
(UTC+00:00)

Vanguard 2 - Pass Details

Date: 13 December 2019
Orbit: 553 x 2938 km, 32.9° (Epoch: 17 January)

Event Time Altitude Azimuth Distance (km) Brightness Sun altitude
Rises 02:20:13 0° 286° (WNW) 5,865 - -54.2°
Reaches altitude 10° 02:24:20 10° 294° (WNW) 5,140 - -53.3°
Maximum altitude 02:38:36 36° 356° (N) 3,957 - -50.1°
Exits shadow 02:42:02 34° 16° (NNE) 4,095 11.0 -49.3°
Drops below altitude 10° 02:54:13 10° 58° (ENE) 5,595 12.2 -46.5°
Sets 02:58:59 0° 66° (ENE) 6,417 12.7 -45.4°
